Regional Weather Roundup
Issued by NWS New Orleans/Baton Rouge, LA

Home | Current Version | Previous Version | Graphics & Text | Print | Product List | Glossary On
Versions: 1 2 3 4 5 6 7 8 9 10 11 12 13 14 15 16 17 18 19 20 21 22 23 24 25 26 27 28 29 30 31 32 33 34 35 36 37 38 39 40 41 42 43 44 45 46 47 48 49 50
535
ASUS44 KLIX 252005
RWRLIX
NEW ORLEANS REGIONAL WEATHER ROUNDUP
NATIONAL WEATHER SERVICE NEW ORLEANS LA
200 PM CST TUE NOV 25 2014

NOTE: "FAIR" INDICATES FEW OR NO CLOUDS BELOW 12,000 FEET WITH NO
      SIGNIFICANT WEATHER AND/OR OBSTRUCTIONS TO VISIBILITY.
      SKY/WX - SKY CONDITION AND SIGNIFICANT WEATHER.
      TMP - AIR TEMPERATURE.     DP    - DEWPOINT TEMPERATURE.
      RH  - RELATIVE HUMIDITY.   PRES  - PRESSURE.
      HI  - HEAT INDEX.          WCI   - WIND CHILL INDEX.

*  THESE STATIONS ARE NOT NWS OR FAA STATIONS AND ARE NOT UNDER
   NWS QUALITY CONTROL.

LAZ038-040-048-061>063-065>067-069-252100-
SOUTHEAST LOUISIANA

CITY           SKY/WX    TMP DP  RH WIND       PRES   REMARKS
N.O. AUDUBON     N/A     56   0  10 MISG        N/A
N.O. INTL ARPT CLOUDY    56  29  35 NW12      30.14R
N.O. LAKEFRONT CLOUDY    56  37  49 NW18      30.13F
N.O. DOWNTOWN* CLOUDY    55  30  38 NW12G18   30.13R
SLIDELL        CLOUDY    55  35  47 NW7       30.10F
BATON ROUGE    CLOUDY    55  28  35 NW3       30.15F
BOOTHVILLE     CLOUDY    58  37  45 N15G21    30.11R
BELLE CHASSE   CLOUDY    57  29  34 N12G20    30.13R
BOGALUSA*        N/A     55  34  44 N8        30.13F
NEW ROADS*     CLOUDY    53  32  43 NW7       30.17F
GONZALES*      MOCLDY    56  30  37 NW9       30.15R
HAMMOND*       CLOUDY    55  28  35 NW9       30.14F
HOUMA*         NOT AVBL
PORT FOURCHON* CLOUDY    57  36  44 N14       30.16R

$$

MSZ070-080>082-252100-
SOUTHERN MISSISSIPPI

CITY           SKY/WX    TMP DP  RH WIND       PRES   REMARKS
MCCOMB         CLOUDY    53  27  36 NW14      30.14F
GULFPORT       PTSUNNY   57  33  40 N15       30.06F
BILOXI         CLOUDY    59  32  35 N12G22    30.06F
PASCAGOULA     CLOUDY    60  30  32 N13       30.06S
STENNIS ARPT*  PTSUNNY   55  30  38 N12       30.09F

$$

COASTAL OBSERVATIONS
LAKE AND NEARSHORE STATIONS

STATION/POSITION TIME  TEMP    WIND        PRES    WAVE
                       AIR SEA DIR/SP/G            HT/PER
                 (UTC) (F)     (DEG/KT/KT) (MB)    (FT/S)
PASCAGOULA       2000   61     360/  9/ 15 1017.1
WAVELAND YACHT   2000   56     360/ 15/ 19 1017.3
GRAND ISLE       2000   57 62  360/ 15/ 19 1020.6
SOUTHWEST PASS   2000   58                 1019.0
NEW CANAL        2000   56 55  340/  7/ 18 1020.4
SHELL BEACH      2000   55 54  330/ 18/ 20 1019.1

OFFSHORE STATIONS

STATION/POSITION TIME  TEMP    WIND        PRES    WAVE
                       AIR SEA DIR/SP/G            HT/PER
                 (UTC) (F)     (DEG/KT/KT) (MB)    (FT/S)
64 S DAUPHIN ISL 1902   59 72   20/ 19/ 23 1017.8    7/ 7

$$




USA.gov is the U.S. government's official web portal to all federal, state and local government web resources and services.